GW7346 Weather Reports


time (UTC)temp
C
wind
direction
speed
KPH
gust
KPH
rain 1hr
cm
rain 24hr
cm
rain mn
cm
humidity
%
barometer
mb
20260505034526 15 182 0.0 3.2 0.00 0.00 0.00 66 1011.2
20260505034003 15 182 0.0 3.2 0.00 0.00 0.00 65 1011.2
20260505033506 15 182 0.0 3.2 0.00 0.00 0.00 65 1011.1
20260505033020 15 182 0.0 3.2 0.00 0.00 0.00 64 1011.1
20260505032503 15 175 0.0 3.2 0.00 0.00 0.00 64 1011.0
20260505032003 15 175 0.0 6.4 0.00 0.00 0.00 63 1011.0
20260505031516 15 188 0.0 6.4 0.00 0.00 0.00 63 1011.1
20260505031007 16 150 0.0 9.7 0.00 0.00 0.00 63 1011.1
20260505030507 16 176 1.6 9.7 0.00 0.00 0.00 62 1011.1
20260505030010 16 161 3.2 8.0 0.00 0.00 0.00 61 1011.1
20260505025504 16 177 1.6 6.4 0.00 0.00 0.00 60 1011.1
20260505025004 16 188 1.6 4.8 0.00 0.00 0.00 60 1011.1
20260505024540 16 147 0.0 8.0 0.00 0.00 0.00 60 1011.1
20260505024006 16 141 0.0 8.0 0.00 0.00 0.00 60 1010.9
20260505023506 16 167 1.6 8.0 0.00 0.00 0.00 59 1010.8
20260505023035 16 172 1.6 9.7 0.00 0.00 0.00 59 1010.8
20260505022504 16 149 3.2 9.7 0.00 0.00 0.00 60 1010.7
20260505022003 16 169 1.6 9.7 0.00 0.00 0.00 60 1010.8
20260505021528 16 144 1.6 9.7 0.00 0.00 0.00 60 1010.8
20260505021003 16 190 3.2 9.7 0.00 0.00 0.00 61 1010.9
20260505020507 16 166 3.2 9.7 0.00 0.00 0.00 61 1011.0
20260505020016 16 180 1.6 8.0 0.00 0.00 0.00 62 1011.0
20260505015506 16 169 1.6 8.0 0.00 0.00 0.00 61 1011.0
20260505015006 16 182 1.6 12.9 0.00 0.00 0.00 61 1010.8
20260505014525 16 190 3.2 12.9 0.00 0.00 0.00 61 1010.6
20260505014006 16 173 4.8 11.3 0.00 0.00 0.00 61 1010.5
20260505013504 17 159 3.2 11.3 0.00 0.00 0.00 60 1010.7
20260505013014 17 167 3.2 11.3 0.00 0.00 0.00 60 1010.8
20260505012504 17 159 1.6 6.4 0.00 0.00 0.00 59 1010.7
20260505012011 17 166 0.0 6.4 0.00 0.00 0.00 59 1010.7
20260505011508 17 163 0.0 4.8 0.00 0.00 0.00 58 1010.7
20260505011003 17 163 1.6 9.7 0.00 0.00 0.00 57 1010.6
20260505010503 18 161 1.6 9.7 0.00 0.00 0.00 57 1010.6
20260505010009 18 164 1.6 8.0 0.00 0.00 0.00 57 1010.6
20260505005504 18 225 0.0 12.9 0.00 0.00 0.00 56 1010.4
20260505005007 18 175 4.8 12.9 0.00 0.00 0.00 56 1010.2
20260505004531 18 211 3.2 14.5 0.00 0.00 0.00 55 1010.2
20260505004006 18 194 6.4 14.5 0.00 0.00 0.00 55 1010.2
20260505003505 18 161 4.8 12.9 0.00 0.00 0.00 55 1010.3
20260505003006 18 182 4.8 11.3 0.00 0.00 0.00 54 1010.3
20260505002503 18 173 3.2 11.3 0.00 0.00 0.00 53 1010.3
20260505002004 18 178 1.6 8.0 0.00 0.00 0.00 53 1010.3
20260505001508 18 151 3.2 9.7 0.00 0.00 0.00 52 1010.3
20260505001003 19 202 1.6 9.7 0.00 0.00 0.00 51 1010.3
20260505000505 19 167 3.2 9.7 0.00 0.00 0.00 50 1010.2
20260505000011 19 182 3.2 9.7 0.00 0.00 0.00 50 1010.3
20260504235505 20 146 3.2 9.7 0.00 0.00 0.00 49 1010.2
20260504235006 20 160 4.8 11.3 0.00 0.00 0.00 48 1010.2
20260504234506 20 182 3.2 11.3 0.00 0.00 0.00 48 1010.2
20260504234003 20 161 3.2 12.9 0.00 0.00 0.00 47 1010.2
20260504233506 20 149 4.8 12.9 0.00 0.00 0.00 46 1010.2
20260504233016 20 132 3.2 17.7 0.00 0.00 0.00 45 1010.1
20260504232508 20 143 4.8 17.7 0.00 0.00 0.00 44 1010.2
20260504232010 21 139 6.4 19.3 0.00 0.00 0.00 44 1010.2
20260504231525 21 198 4.8 19.3 0.00 0.00 0.00 44 1010.2
20260504231004 21 137 6.4 20.9 0.00 0.00 0.00 43 1010.1
20260504230504 21 144 9.7 20.9 0.00 0.00 0.00 42 1010.2
20260504230010 21 146 4.8 17.7 0.00 0.00 0.00 42 1010.3
20260504225508 21 150 4.8 22.5 0.00 0.00 0.00 41 1010.2
20260504225005 21 173 11.3 22.5 0.00 0.00 0.00 41 1010.1
20260504224513 22 159 8.0 25.7 0.00 0.00 0.00 42 1010.2
20260504224005 22 240 6.4 29.0 0.00 0.00 0.00 42 1010.1
20260504223507 22 151 14.5 29.0 0.00 0.00 0.00 40 1010.1
20260504223019 22 161 11.3 25.7 0.00 0.00 0.00 40 1010.1
20260504222504 22 140 11.3 24.1 0.00 0.00 0.00 40 1010.1
20260504222009 22 138 11.3 24.1 0.00 0.00 0.00 40 1010.1
20260504221514 22 148 8.0 22.5 0.00 0.00 0.00 40 1010.1
20260504221006 23 165 4.8 24.1 0.00 0.00 0.00 40 1010.1
20260504220510 23 113 9.7 24.1 0.00 0.00 0.00 38 1010.0
20260504220024 24 139 9.7 20.9 0.00 0.00 0.00 37 1010.0
20260504215504 24 159 9.7 20.9 0.00 0.00 0.00 36 1010.0
20260504215005 25 98 8.0 20.9 0.00 0.00 0.00 36 1009.9
20260504214509 25 178 8.0 20.9 0.00 0.00 0.00 35 1009.9
20260504214004 25 182 6.4 20.9 0.00 0.00 0.00 35 1009.9
20260504213507 25 108 9.7 22.5 0.00 0.00 0.00 34 1010.0
20260504213021 25 159 8.0 22.5 0.00 0.00 0.00 30 1010.1
20260504212506 25 167 3.2 11.3 0.00 0.00 0.00 31 1010.1
20260504212009 25 153 4.8 22.5 0.00 0.00 0.00 32 1010.0
20260504211521 25 236 6.4 22.5 0.00 0.00 0.00 31 1010.1
20260504211007 25 241 4.8 16.1 0.00 0.00 0.00 31 1010.0
20260504210505 25 160 4.8 14.5 0.00 0.00 0.00 31 1010.0
20260504210015 25 231 8.0 17.7 0.00 0.00 0.00 31 1010.1
20260504205508 25 226 6.4 17.7 0.00 0.00 0.00 32 1010.1
20260504205009 25 215 8.0 17.7 0.00 0.00 0.00 32 1010.2
20260504204529 25 202 4.8 16.1 0.00 0.00 0.00 34 1010.2
20260504204005 25 211 4.8 20.9 0.00 0.00 0.00 33 1010.2
20260504203503 25 253 4.8 20.9 0.00 0.00 0.00 32 1010.2
20260504203013 25 177 6.4 17.7 0.00 0.00 0.00 32 1010.3
20260504202504 25 270 1.6 24.1 0.00 0.00 0.00 34 1010.3
20260504202005 25 176 9.7 24.1 0.00 0.00 0.00 32 1010.4
20260504201517 25 153 9.7 20.9 0.00 0.00 0.00 33 1010.3
20260504201008 25 349 9.7 20.9 0.00 0.00 0.00 33 1010.6
20260504200507 25 189 4.8 17.7 0.00 0.00 0.00 33 1010.5
20260504200024 25 167 4.8 19.3 0.00 0.00 0.00 33 1010.7
20260504195506 25 271 8.0 19.3 0.00 0.00 0.00 31 1010.8
20260504195007 25 157 6.4 19.3 0.00 0.00 0.00 32 1010.8
20260504194513 25 281 9.7 17.7 0.00 0.00 0.00 33 1010.9
20260504194005 25 263 4.8 25.7 0.00 0.00 0.00 34 1011.0
20260504193509 25 232 11.3 25.7 0.00 0.00 0.00 33 1010.9
20260504193022 24 301 3.2 17.7 0.00 0.00 0.00 34 1011.1
20260504192502 24 136 1.6 20.9 0.00 0.00 0.00 33 1011.2
20260504192007 24 281 6.4 24.1 0.00 0.00 0.00 34 1011.2
20260504191516 24 228 8.0 24.1 0.00 0.00 0.00 33 1011.3
20260504191007 24 180 8.0 24.1 0.00 0.00 0.00 33 1011.3
20260504190504 24 304 6.4 24.1 0.00 0.00 0.00 35 1011.4
20260504190018 24 205 4.8 24.1 0.00 0.00 0.00 35 1011.5
20260504185506 24 157 6.4 19.3 0.00 0.00 0.00 34 1011.6
20260504185006 24 232 6.4 17.7 0.00 0.00 0.00 34 1011.6
20260504184533 24 136 8.0 27.4 0.00 0.00 0.00 33 1011.8
20260504184011 24 302 9.7 27.4 0.00 0.00 0.00 32 1012.0
20260504183513 24 224 6.4 19.3 0.00 0.00 0.00 33 1012.1
20260504183025 25 169 3.2 19.3 0.00 0.00 0.00 34 1012.1
20260504182511 25 285 6.4 19.3 0.00 0.00 0.00 32 1012.2
20260504182008 25 209 3.2 14.5 0.00 0.00 0.00 34 1012.2
20260504181516 24 174 4.8 14.5 0.00 0.00 0.00 32 1012.2
20260504181006 24 270 6.4 20.9 0.00 0.00 0.00 33 1012.2
20260504180506 24 230 6.4 20.9 0.00 0.00 0.00 30 1012.4
20260504180018 23 186 3.2 17.7 0.00 0.00 0.00 32 1012.3
20260504175507 23 216 6.4 24.1 0.00 0.00 0.00 33 1012.5
20260504175006 23 254 12.9 24.1 0.00 0.00 0.00 31 1012.6
20260504174522 23 214 6.4 22.5 0.00 0.00 0.00 33 1012.5
20260504174009 23 201 8.0 22.5 0.00 0.00 0.00 33 1012.6
20260504173511 23 221 6.4 14.5 0.00 0.00 0.00 32 1012.8
20260504173022 23 191 4.8 16.1 0.00 0.00 0.00 32 1012.8
20260504172510 23 238 4.8 24.1 0.00 0.00 0.00 32 1012.8
20260504172011 23 194 9.7 24.1 0.00 0.00 0.00 34 1012.9
20260504171528 23 204 8.0 16.1 0.00 0.00 0.00 33 1013.0
20260504171016 23 195 4.8 16.1 0.00 0.00 0.00 34 1013.0
20260504170508 23 252 8.0 19.3 0.00 0.00 0.00 35 1013.1
20260504151004 21 151 6.4 16.1 0.00 0.00 0.00 35 1014.4
20260504150508 21 196 1.6 12.9 0.00 0.00 0.00 37 1014.4
20260504141004 19 221 4.8 11.3 0.00 0.00 0.00 42 1014.6
20260504140507 18 216 4.8 11.3 0.00 0.00 0.00 43 1014.6
20260504130507 16 211 8.0 20.9 0.00 0.00 0.00 49 1015.0
20260504110506 8 227 0.0 6.4 0.00 0.00 0.00 77 1015.4
20260504100506 8 175 1.6 6.4 0.00 0.00 0.00 77 1015.5
20260504081540 7 246 0.0 3.2 0.00 0.00 0.00 82 1015.9
20260504081011 7 246 0.0 1.6 0.00 0.00 0.00 82 1015.8
20260504080510 7 246 0.0 3.2 0.00 0.00 0.00 81 1015.9
20260504050504 4 190 0.0 0.0 0.00 0.00 0.00 84 1016.1
20260504050014 4 190 0.0 0.0 0.00 0.00 0.00 83 1016.1
20260504045502 4 190 0.0 0.0 0.00 0.00 0.00 83 1016.1
20260504045003 4 190 0.0 0.0 0.00 0.00 0.00 83 1016.1
20260504044508 4 190 0.0 0.0 0.00 0.00 0.00 83 1016.2
20260504044003 4 190 0.0 0.0 0.00 0.00 0.00 84 1016.2
20260504043504 4 190 0.0 0.0 0.00 0.00 0.00 84 1016.2
20260504043033 4 190 0.0 0.0 0.00 0.00 0.00 83 1016.2
20260504042505 4 190 0.0 0.0 0.00 0.00 0.00 83 1016.1
20260504042009 4 190 0.0 0.0 0.00 0.00 0.00 82 1016.2
20260504041506 5 190 0.0 0.0 0.00 0.00 0.00 82 1016.1
20260504041003 5 190 0.0 0.0 0.00 0.00 0.00 82 1016.1
20260504040508 5 190 0.0 0.0 0.00 0.00 0.00 82 1016.0
20260504040022 5 190 0.0 0.0 0.00 0.00 0.00 81 1016.1
20260504035505 5 190 0.0 0.0 0.00 0.00 0.00 81 1016.1
20260504035004 5 190 0.0 0.0 0.00 0.00 0.00 81 1016.1